• In Hungary
  • List of Countries
  • For 7 days
  • Water Temperature
  • Satellite Maps
  • Weather Map
  • News
  • Weather Widgets
  • user-avatar
    Login

    Hourly Weather Schoten

    Today, 14 December, Thursday

    Time Temperature Precipitation Wind Pressure Humidity
    00:00 +3°C° 0.1 mm 5 mps 742 mmHg 80%
    01:00 +3°C° 0.8 mm 7 mps 742 mmHg 78%
    02:00 +2°C° 0.8 mm 8 mps 742 mmHg 77%
    03:00 +2°C° 0.8 mm 10 mps 742 mmHg 75%
    04:00 +2°C° 0.2 mm 9 mps 743 mmHg 74%
    05:00 +2°C° 0.2 mm 9 mps 743 mmHg 72%
    06:00 +1°C° 0.2 mm 8 mps 744 mmHg 71%
    07:00 +1°C° 0.1 mm 8 mps 744 mmHg 71%
    08:00 +3°C° 0.1 mm 7 mps 744 mmHg 72%
    09:00 +3°C° 0.1 mm 7 mps 745 mmHg 73%
    10:00 +3°C° 0.2 mm 7 mps 744 mmHg 70%
    11:00 +4°C° 0.2 mm 7 mps 744 mmHg 68%
    12:00 +4°C° 0.2 mm 7 mps 744 mmHg 66%
    13:00 +4°C° 0.1 mm 6 mps 743 mmHg 68%
    14:00 +4°C° 0.1 mm 6 mps 743 mmHg 69%
    15:00 +3°C° 0.1 mm 5 mps 743 mmHg 71%
    16:00 +4°C° 0.1 mm 4 mps 742 mmHg 73%
    17:00 +3°C° 0.1 mm 4 mps 742 mmHg 76%
    18:00 +3°C° 0.1 mm 4 mps 742 mmHg 78%
    19:00 +1°C° 0 mm 4 mps 742 mmHg 80%
    20:00 +1°C° 0 mm 4 mps 742 mmHg 81%
    21:00 +1°C° 0 mm 4 mps 742 mmHg 82%
    22:00 +1°C° 0 mm 4 mps 742 mmHg 83%
    23:00 0°C° 0 mm 4 mps 743 mmHg 83%

    Tomorrow, 15 December, Friday

    Time Temperature Precipitation Wind Pressure Humidity
    00:00 0°C° 0 mm 4 mps 743 mmHg 83%
    01:00 0°C° 0 mm 4 mps 743 mmHg 84%
    02:00 0°C° 0 mm 5 mps 743 mmHg 84%
    03:00 0°C° 0 mm 5 mps 743 mmHg 84%
    04:00 0°C° 0 mm 5 mps 743 mmHg 85%
    05:00 0°C° 0 mm 4 mps 743 mmHg 86%
    06:00 0°C° 0 mm 4 mps 743 mmHg 88%
    07:00 0°C° 0 mm 4 mps 744 mmHg 88%
    08:00 +1°C° 0 mm 3 mps 744 mmHg 89%
    09:00 +2°C° 0 mm 3 mps 745 mmHg 90%
    10:00 +3°C° 0 mm 3 mps 745 mmHg 87%
    11:00 +4°C° 0 mm 3 mps 746 mmHg 85%
    12:00 +5°C° 0 mm 3 mps 746 mmHg 82%
    13:00 +4°C° 0 mm 3 mps 747 mmHg 84%
    14:00 +4°C° 0 mm 3 mps 747 mmHg 85%
    15:00 +5°C° 0 mm 2 mps 748 mmHg 86%
    16:00 +5°C° 0 mm 2 mps 749 mmHg 86%
    17:00 +4°C° 0 mm 3 mps 749 mmHg 87%
    18:00 +3°C° 0 mm 3 mps 750 mmHg 87%
    19:00 +3°C° 0 mm 3 mps 751 mmHg 87%
    20:00 +3°C° 0 mm 3 mps 752 mmHg 87%
    21:00 +3°C° 0 mm 3 mps 752 mmHg 86%
    22:00 +2°C° 0 mm 3 mps 753 mmHg 86%
    23:00 +2°C° 0 mm 3 mps 753 mmHg 85%

    Day after tomorrow, 16 December, Saturday

    Time Temperature Precipitation Wind Pressure Humidity
    00:00 +2°C° 0 mm 3 mps 754 mmHg 85%
    01:00 +2°C° 0.2 mm 3 mps 754 mmHg 84%
    02:00 +2°C° 0.2 mm 3 mps 755 mmHg 84%
    03:00 +2°C° 0.2 mm 3 mps 755 mmHg 84%
    04:00 +2°C° 0.2 mm 3 mps 756 mmHg 83%
    05:00 +2°C° 0.2 mm 3 mps 756 mmHg 82%
    06:00 +1°C° 0.2 mm 4 mps 757 mmHg 82%
    07:00 +1°C° 0.2 mm 4 mps 757 mmHg 81%
    08:00 +3°C° 0.2 mm 4 mps 758 mmHg 80%
    09:00 +3°C° 0.2 mm 4 mps 759 mmHg 78%
    10:00 +2°C° 0.3 mm 5 mps 759 mmHg 76%
    11:00 +3°C° 0.3 mm 5 mps 759 mmHg 73%
    12:00 +4°C° 0.3 mm 6 mps 760 mmHg 70%
    13:00 +3°C° 0.3 mm 6 mps 760 mmHg 71%
    14:00 +3°C° 0.3 mm 5 mps 760 mmHg 73%
    15:00 +3°C° 0.3 mm 5 mps 761 mmHg 75%
    16:00 +2°C° 0.1 mm 5 mps 761 mmHg 77%
    17:00 +2°C° 0.1 mm 5 mps 762 mmHg 80%
    18:00 +1°C° 0.1 mm 4 mps 762 mmHg 82%
    19:00 +2°C° 0.1 mm 5 mps 763 mmHg 82%
    20:00 +2°C° 0.1 mm 5 mps 763 mmHg 81%
    21:00 +2°C° 0.1 mm 5 mps 764 mmHg 81%
    22:00 +2°C° 0.2 mm 5 mps 764 mmHg 82%
    23:00 +2°C° 0.2 mm 5 mps 764 mmHg 82%

    17 December, Sunday

    Time Temperature Precipitation Wind Pressure Humidity
    00:00 +2°C° 0.2 mm 5 mps 764 mmHg 83%
    01:00 +3°C° 0.2 mm 4 mps 765 mmHg 85%
    02:00 +3°C° 0.2 mm 4 mps 765 mmHg 86%
    03:00 +3°C° 0.2 mm 3 mps 765 mmHg 88%
    04:00 +2°C° 0.1 mm 3 mps 766 mmHg 88%
    05:00 +2°C° 0.1 mm 3 mps 766 mmHg 88%
    06:00 +3°C° 0.1 mm 2 mps 766 mmHg 88%
    07:00 +3°C° 0 mm 2 mps 767 mmHg 87%
    08:00 +3°C° 0 mm 2 mps 767 mmHg 86%
    09:00 +3°C° 0 mm 2 mps 768 mmHg 85%
    10:00 +4°C° 0 mm 2 mps 768 mmHg 82%
    11:00 +5°C° 0 mm 2 mps 768 mmHg 79%
    12:00 +6°C° 0 mm 2 mps 768 mmHg 76%
    13:00 +5°C° 0 mm 3 mps 768 mmHg 78%
    14:00 +4°C° 0 mm 3 mps 768 mmHg 81%
    15:00 +4°C° 0 mm 3 mps 768 mmHg 83%
    16:00 +3°C° 0 mm 3 mps 768 mmHg 85%
    17:00 +3°C° 0 mm 4 mps 768 mmHg 87%
    18:00 +3°C° 0 mm 4 mps 768 mmHg 90%
    19:00 +2°C° 0.2 mm 5 mps 768 mmHg 90%
    20:00 +3°C° 0.2 mm 6 mps 768 mmHg 91%
    21:00 +3°C° 0.2 mm 6 mps 767 mmHg 92%
    22:00 +4°C° 0.2 mm 7 mps 767 mmHg 91%
    23:00 +5°C° 0.2 mm 7 mps 766 mmHg 91%

    18 December, Monday

    Time Temperature Precipitation Wind Pressure Humidity
    00:00 +6°C° 0.2 mm 8 mps 766 mmHg 91%
    01:00 +6°C° 0.8 mm 8 mps 766 mmHg 91%
    02:00 +7°C° 0.8 mm 8 mps 765 mmHg 91%
    03:00 +7°C° 0.8 mm 8 mps 765 mmHg 90%
    04:00 +7°C° 0.4 mm 8 mps 765 mmHg 91%
    05:00 +7°C° 0.4 mm 8 mps 765 mmHg 91%
    06:00 +8°C° 0.4 mm 7 mps 765 mmHg 92%
    07:00 +8°C° 0.2 mm 7 mps 766 mmHg 92%
    08:00 +8°C° 0.2 mm 6 mps 766 mmHg 91%
    09:00 +8°C° 0.2 mm 6 mps 766 mmHg 91%
    10:00 +8°C° 0.1 mm 5 mps 767 mmHg 87%
    11:00 +8°C° 0.1 mm 5 mps 767 mmHg 83%
    12:00 +8°C° 0.1 mm 5 mps 767 mmHg 78%
    13:00 +8°C° 0 mm 5 mps 768 mmHg 78%
    14:00 +7°C° 0 mm 4 mps 768 mmHg 79%
    15:00 +7°C° 0 mm 4 mps 768 mmHg 79%
    16:00 +7°C° 0 mm 3 mps 769 mmHg 81%
    17:00 +5°C° 0 mm 3 mps 769 mmHg 83%
    18:00 +5°C° 0 mm 2 mps 770 mmHg 85%
    19:00 +5°C° 0 mm 2 mps 770 mmHg 86%
    20:00 +6°C° 0 mm 1 mps 771 mmHg 86%
    21:00 +6°C° 0 mm 1 mps 771 mmHg 87%
    22:00 +5°C° 0 mm 1 mps 772 mmHg 87%
    23:00 +5°C° 0 mm 1 mps 772 mmHg 87%

    19 December, Tuesday

    Time Temperature Precipitation Wind Pressure Humidity
    00:00 +5°C° 0 mm 1 mps 772 mmHg 88%
    01:00 +5°C° 0 mm 1 mps 772 mmHg 88%
    02:00 +5°C° 0 mm 1 mps 772 mmHg 88%
    03:00 +4°C° 0 mm 1 mps 773 mmHg 89%
    04:00 +4°C° 0 mm 1 mps 773 mmHg 88%
    05:00 +3°C° 0 mm 2 mps 773 mmHg 88%
    06:00 +3°C° 0 mm 2 mps 773 mmHg 88%
    07:00 +3°C° 0 mm 2 mps 773 mmHg 86%
    08:00 +4°C° 0 mm 2 mps 774 mmHg 85%
    09:00 +4°C° 0 mm 2 mps 774 mmHg 83%
    10:00 +5°C° 0 mm 2 mps 774 mmHg 80%
    11:00 +6°C° 0 mm 2 mps 774 mmHg 77%
    12:00 +6°C° 0 mm 2 mps 774 mmHg 74%
    13:00 +6°C° 0 mm 2 mps 774 mmHg 76%
    14:00 +6°C° 0 mm 2 mps 774 mmHg 77%
    15:00 +6°C° 0 mm 2 mps 774 mmHg 79%
    16:00 +5°C° 0 mm 2 mps 774 mmHg 81%
    17:00 +5°C° 0 mm 2 mps 775 mmHg 83%
    18:00 +4°C° 0 mm 2 mps 775 mmHg 85%
    19:00 +4°C° 0 mm 2 mps 775 mmHg 86%
    20:00 +4°C° 0 mm 2 mps 776 mmHg 87%
    21:00 +4°C° 0 mm 2 mps 776 mmHg 88%
    22:00 +4°C° 0 mm 2 mps 776 mmHg 88%
    23:00 +4°C° 0 mm 2 mps 776 mmHg 88%
    Show more